[Date Prev][Date Next][Thread Prev][Thread Next] - [Date Index][Thread Index][Author Index]
2 Line ISS Keps 10-3
- Subject: [sarex] 2 Line ISS Keps 10-3
- From: "Dave Larsen PhD" <doc@xxxxxxxxxxx>
- Date: Sun, 2 Oct 2005 19:08:32 -0700
ISS
1 25544U 98067A 05275.98182870 .00013602 00000-0 99269-4 0 4741
2 25544 051.6430 068.8013 0001706 094.1662 039.4229 15.73613720392647
----
Via the sarex mailing list at AMSAT.ORG courtesy of AMSAT-NA.
To unsubscribe, send "unsubscribe sarex" to Majordomo@amsat.org
AMSAT Home